www.pogodaiklimat.ru

Погода и климат >> Архив погоды >> Индия >> Sambalpur


ПОГОДА в Sambalpur

  • Прогноз погоды в Sambalpur
  • Монитор погоды в Sambalpur
  • Климат города

АРХИВ ПОГОДЫ в Sambalpur

Время (UTC), дата Ветер
(напр.,м/с)
 
Видим.   Явления Облачность Т
(С)
Тd
(С)
f
(%)
Тe
(С)
Тes
(С)
Комфортность P
(гПа)
Po
(гПа)
Тmin
(С)
Tmax
(С)
R
(мм)
R24
(мм)
S
(см)
03 14.06 штиль 0 4000 м 5/4 600 м
[Sc Ac trans]
+28.6 +23.1 72 +38 +46 очень
душно
999.9 1000.0 +23.7
06 14.06 штиль 0 4000 м 4/4 600 м
[Sc]
+33.6 +25.2 62 +48 +66 опасность
перегрева
996.8 997.0
09 14.06 штиль 0 4000 м 4/3 600 м
[Sc]
+36.6 +25.4 53 +51 +64 опасность
перегрева
996.7 997.0
12 14.06 штиль 0 4000 м 5/4 600 м
[Sc Ac trans]
+36.2 +27.8 62 +56 +57 опасность
перегрева
996.6 997.0 +37.4
03 15.06 ЮЗ 1 4000 м ясно +31.4 +24.3 66 +44 +57 опасность
перегрева
1001.1 1001.0 +25.1
06 15.06 штиль 0 4000 м ясно +36.0 +24.7 52 +49 +78 опасность
перегрева
1000.6 1001.0
09 15.06 штиль 0 4000 м ясно +38.0 +24.5 46 +50 +70 опасность
перегрева
999.3 999.0
12 15.06 штиль 0 4000 м ясно +37.2 +25.2 50 +51 +52 опасность
перегрева
997.9 998.0 +38.8
03 16.06 ЮЗ 1 4000 м 3/3 600 м
[Sc]
+31.6 +23.5 62 +42 +52 опасность
перегрева
1002.9 1003.0 +25.3
06 16.06 штиль 0 4000 м 6/5 600 м
[Sc]
+35.8 +24.2 51 +48 +61 опасность
перегрева
1002.5 1003.0
09 16.06 штиль 0 4000 м 3/3 600 м
[Sc]
+38.4 +23.7 43 +49 +63 опасность
перегрева
1000.1 1000.0
12 16.06 штиль 0 4000 м 1/1 600 м
[Sc]
+37.4 +27.3 57 +56 +58 опасность
перегрева
998.4 998.0 +38.8
03 17.06 штиль 0 4000 м ясно +32.0 +23.3 60 +43 +57 опасность
перегрева
1002.2 1002.0 +25.3
06 17.06 штиль 0 4000 м ясно +36.2 +24.0 50 +48 +78 опасность
перегрева
1001.6 1002.0
09 17.06 штиль 0 4000 м 1/1 600 м
[Sc]
+39.0 +23.4 41 +49 +67 опасность
перегрева
999.4 999.0
12 17.06 штиль 0 4000 м 1/1 600 м
[Sc]
+38.4 +26.3 50 +54 +55 опасность
перегрева
997.7 998.0 +39.8
03 18.06 З 1 4000 м ясно +32.4 +23.2 58 +43 +56 опасность
перегрева
1001.6 1002.0 +25.3
06 18.06 штиль 0 4000 м ясно +36.4 +23.9 49 +48 +78 опасность
перегрева
1000.8 1001.0
09 18.06 штиль 0 4000 м ясно +39.6 +23.1 39 +49 +69 опасность
перегрева
998.5 999.0
12 18.06 штиль 0 4000 м ясно +39.0 +25.1 45 +52 +53 опасность
перегрева
996.6 997.0 +40.2
03 19.06 штиль 0 4000 м 1/1 600 м
[Sc]
+32.4 +23.5 59 +43 +56 опасность
перегрева
1001.9 1002.0 +25.4
06 19.06 штиль 0 4000 м ясно +36.0 +24.4 51 +48 +78 опасность
перегрева
1001.3 1001.0
09 19.06 штиль 0 4000 м 3/3 600 м
[Sc diur, vesp]
+38.4 +24.0 44 +50 +63 опасность
перегрева
998.5 999.0
12 19.06 штиль 0 4000 м ясно +38.2 +25.1 48 +52 +53 опасность
перегрева
997.0 997.0 +39.4
03 20.06 ЮЗ 1 4000 м 3/3 600 м
[Sc]
+32.6 +24.3 62 +45 +54 опасность
перегрева
1002.1 1002.0 +26.5
06 20.06 штиль 0 4000 м 1/1 600 м
[Sc]
+36.2 +24.7 52 +49 +76 опасность
перегрева
1002.0 1002.0
09 20.06 штиль 0 4000 м 3/3 600 м
[Sc]
+38.8 +25.5 47 +53 +66 опасность
перегрева
999.0 999.0
12 20.06 штиль 0 4000 м 5/4 600 м
[Sc Ac trans]
+38.6 +26.2 50 +54 +55 опасность
перегрева
997.6 998.0 +40.1

 

Местоположение метеостанции Sambalpur (Orissa, Индия): широта 21.47 долгота 83.97 высота над уровнем моря 148 м.

В архиве по умолчанию представлена погода в Sambalpur за последнюю неделю. Архивные данные за месяц целиком и за предыдущие месяцы, начиная с января 2011 года, Вы можете получить, выбрав интересующий диапазон дат из раскрывающегося списка и нажав кнопку "Ввод!".


*Определитесь, кто Вы:
робот инопланетянин человек

Внимание! Время в таблицах - всемирное. Для получения местного времени необходимо прибавить поправку, которая в Sambalpur равна 5.5 ч.

Смотрите также архив погоды в соседних городах и на ближайших метеорологических станциях:

Погода в Hirakud (Orissa, Индия) (12 км)
Погода в Jharsuguda (Orissa, Индия) (51 км)
Погода в Sundargarh (Orissa, Индия) (73 км)
Погода в Phulbani (Orissa, Индия) (114 км)
Погода в Angul (Orissa, Индия) (137 км)
Погода в Titlagarh (Orissa, Индия) (148 км)
Погода в Keongjhargarh (Orissa, Индия) (161 км)
Погода в Bhawanipatna (Orissa, Индия) (191 км)
Погода в Bilaspur (Chhattisgarh, Индия) (199 км)
Погода в Ambikapur (Chhattisgarh, Индия) (203 км)

Пояснения к столбцам:

Ветер - указаны скорость ветра в м/с - средняя за 10 мин, порывы в срок и между сроками (в фигурных скобках) и направление, откуда дует ветер: С - северный, СВ - северо-восточный, В - восточный, ЮВ - юго-восточный, Ю - южный, ЮЗ - юго-западный, З - западный, СЗ - северо-западный.
Видимость - горизонтальная дальность видимости в метрах или километрах. При видимости от 1 до 10 км при отсутствии осадков обычно наблюдается дымка, при ухудшении видимости до 1 км и менее - туман. В сухую погоду видимость может ухудшаться дымом, пылью или мглою.
Явления - указаны атмосферные явления, наблюдавшиеся в срок или в последний час перед сроком; фигурными скобками обозначены явления, наблюдавшиеся между сроками (за 1-3 часа до срока); квадратными скобками обозначены град или гололедные отложения с указанием их диаметра в мм.
Облачность - указаны через наклонную черту общая и нижняя облачность в баллах и высота нижней границы облаков в метрах; квадратными скобками обозначены формы облаков: Ci - перистые, Cs - перисто-слоистые, Cc - перисто-кучевые, Ac - высококучевые, As - высокослоистые, Sc - слоисто-кучевые, Ns - слоисто-дождевые, Cu - кучевые, Cb - кучево-дождевые. Подробнее классификацию облаков см. в Атласе облаков (PDF).
T - Температура воздуха - температура, измеренная на высоте 2 м над землей.
Td - Температура точки росы - температура, при понижении до которой содержащийся в воздухе водяной пар достигнет насыщения.
f - Относительная влажность воздуха - влажноcть воздуха, измеренная на высоте 2 м над землей.
Te - Эффективная температура - температура, которую ощущает одетый по сезону человек в тени. Характеристика душности погоды. При расчете учитывается влияние влажности воздуха и скорости ветра на теплоощущения человека.
Tes - Эффективная температура на солнце - температура, которую ощущает человек, с поправкой на солнечный нагрев. Характеристика знойности погоды. Зависит от высоты солнца над горизонтом, облачности и скорости ветра. Ночью, в пасмурную погоду, а также при ветре 12 м/с и более поправка равна нулю.
P - Атмосферное давление - приведенное к уровню моря атмосферное давление.
Po - Атмосферное давление - измеренное на уровне метеостанции атмосферное давление.
Tmin - Минимальная температура - минимум температуры воздуха на высоте 2 м над землей.
Tmax - Максимальная температура - максимум температуры воздуха на высоте 2 м над землей.
R - Количество осадков - Количество выпавших осадков за период времени, мм. При наведении курсора мыши на число - период времени, за который выпало указанное количество осадков.
R24 - Количество осадков - Количество выпавших осадков за 24 часа, мм.
S - Снежный покров - Высота снежного покрова, см. При наведении курсора мыши на число - состояние снежного покрова и степень покрытия местности в баллах.